{"data":{"norad_id":67215,"intl_designator":"2025-304Z","name":"STARLINK-36221","alt_names":[],"object_type":"PAYLOAD","status":"ACTIVE","operator":null,"country":"US","launch_date":"2025-12-17","launch_site_code":"AFWTR","launch_vehicle":null,"mission":null,"orbit_class":"UNKNOWN","rcs_meters":null,"size_class":null,"mass_kg":null,"dimensions":null,"purposes":["comms"],"wikipedia_slug":null,"has_3d_model":false,"image_url":null,"decayed_at":null,"tle_current":{"epoch":"2026-05-24T22:39:44.572032Z","epoch_age_seconds":90593,"freshness":"FRESH","line1":"1 67215U 25304Z   26144.94426588 -.00004211  00000+0 -34535-3 0  9990","line2":"2 67215  70.0012 342.3180 0002925 265.3719  94.7106 14.98324928 25302","mean_motion":14.98324928,"eccentricity":0.0002925,"inclination_deg":70.0012,"raan_deg":342.318,"arg_perigee_deg":265.3719,"mean_anomaly_deg":94.7106,"bstar":-0.00034535,"rev_number":2530,"period_min":96.107324458797,"perigee_km":570.03863972187,"apogee_km":574.10451173867,"semimajor_km":6950.2085757303,"source":"CELESTRAK","updated_at":"2026-05-25T13:38:21.513140Z"}}}